星链-35123(STARLINK-35123)

导读

STARLINK-35123是美国太空探索技术公司SpaceX星链星座的卫星,于2025年9月18日发射升空。星链项目旨在构建全球卫星互联网星座,为全球用户提供高速低延迟的宽带互联网服务。STARLINK-35123入轨后,将进一步扩充星链星座规模,提升星座覆盖范围与服务能力,助力全球网络覆盖盲区接入互联网。

Basic Information
目录编号:
65634
目录名称:
STARLINK-35123
国际标识:
2025-210N
轨道中心:
EARTH
卫星名称:
星链-35123
卫星全名:
星链-35123(STARLINK-35123)
卫星状态:
在轨 (已飞行268 天)
发射日期:
2025-09-18 UTC
国别 :
美国 (US)
星等 :
--
Orbit Information
数据来源 国际轨道数据 AOE轨道数据
星历时间 2026-06-13T05:01:52+0800
18小时前
查看轨道信息
2026-06-10T10:00:00+0800
3天前
查看轨道信息
半长轴 6848.768km 6848.885km
偏心率 0.0001168 0.000153
轨道倾角 53.159° 53.159°
近地点辐角 84.271° 75.767°
升交点赤经 225.011° 238.014°
平近点角 275.842° 354.881°
近地点 469.831km 469.7km
远地点 471.431km 471.796km
周期 94.011分钟 94.013分钟
每日圈数 15.317369 15.316975
Detailed Information
固有亮度:
5
最大亮度:
2.5
卫星平台:
Starlink V1.0
覆盖范围:
全球
运营商:
太空探索技术公司
运营商所在国:
美国
制造商(研发单位):
太空探索技术公司
制造商所在国:
美国
使用方式:
暂无
Satellite Introduction
Starlink 计划是 SpaceX 推出的全球卫星互联网项目,通过发射低轨道卫星,为全球尤其是偏远地区提供高速、低延迟的互联网服务。自 2019 年起,Starlink 已部署数千颗卫星,旨在缩小全球数字鸿沟,推动互联网普及。该项目还为军事、航空等行业提供通信支持,带来广泛经济效益。
2D Orbit Map
3D Orbit Map
Orbit Altitude Analysis Chart
Orbit Inclination Analysis Chart
Orbit Comprehensive Analysis Chart
View Comprehensive Chart